[[{"header":{"parameterUnit":"m.s-1","parameterCategory":1,"la1":30.2991,"la2":30.254,"lo1":-89.0895,"lo2":-89.0444,"dy":0.0017,"dx":0.0017,"nx":28,"ny":28,"refTime":"2023-04-27T21:00:00:Z","depth":0,"parameterNumber":2,"parameterNumberName":"U-component_of_WINDS"},"data":[0,0,0,0,0,0,0,0,0,0,0,0,0,0,0,0,0,0,0,0,0,0,0,0,0,0,0,0,0,0,0,0,0,0,0,0,0,0,0,0,0,0,0,0,0,0,0,0,0,0,0,0,0,0,0,0,0,0,-4.0639,-4.0639,0,-4.0681,-4.0681,-4.0681,-4.0554,-4.055,-4.0546,-4.0542,-4.058,-4.0585,-4.0589,0,0,0,0,0,0,0,0,0,0,0,0,0,-4.0442,-4.0446,-4.0639,-4.0639,-4.064,-4.068,-4.0681,-4.0682,-4.0555,-4.055,-4.0545,-4.0541,-4.0579,-4.0584,-4.059,0,0,0,0,0,0,0,0,0,0,0,0,0,-4.051,-4.0448,-4.0638,-4.0581,-4.0577,-4.068,-4.0681,-4.0682,-4.0556,-4.055,-4.0544,-4.0538,-4.0577,-4.0584,-4.059,-4.075,0,0,-4.0612,-4.0615,0,0,0,0,0,0,0,0,-4.0506,-4.0517,-4.0589,-4.0585,-4.058,-4.0606,-4.0625,-4.0704,-4.0557,-4.0563,-4.0542,-4.0536,-4.0593,-4.0598,-4.0619,-4.0752,-4.0753,-4.0612,-4.0616,-4.0619,-4.0621,0,0,0,0,0,0,0,-4.0502,-4.0515,-4.0655,-4.059,-4.0585,-4.0551,-4.0555,-4.064,-4.061,-4.0562,-4.0553,-4.056,-4.059,-4.0613,-4.0619,-4.0754,-4.0612,-4.0618,-4.0623,-4.0625,-4.1018,-4.1024,0,0,0,0,0,0,-4.0505,-4.0512,-4.0654,-4.0656,-4.0528,-4.056,-4.0563,-4.0604,-4.0609,-4.0604,-4.0565,-4.0554,-4.0604,-4.0611,-4.062,-4.0806,-4.0619,-4.0626,-4.063,-4.1012,-4.102,-4.1026,0,0,0,0,0,0,-4.0502,-4.0519,-4.0652,-4.0582,-4.0596,-4.0569,-4.0616,-4.0608,-4.063,-4.0611,-4.0605,-4.0595,-4.0599,-4.061,-4.0719,-4.0806,-4.0629,-4.0635,-4.1005,-4.1014,-4.1023,-4.1181,0,0,0,0,0,0,-4.0497,-4.0519,-4.0581,-4.0584,-4.06,-4.0752,-4.0621,-4.0613,-4.0643,-4.0629,-4.0637,-4.0633,-4.0595,-4.0709,-4.0726,-4.0812,-4.0641,-4.0997,-4.1009,-4.102,-4.1168,-4.1195,-4.1218,0,0,0,0,0,-4.049,-4.0622,-4.0584,-4.0602,-4.0677,-4.0758,-4.0767,-4.0723,-4.0651,-4.0712,-4.0699,-4.0632,-4.0794,-4.0721,-4.0739,-4.0829,-4.0991,-4.1005,-4.1019,-4.1157,-4.119,-4.1217,0,0,0,0,0,0,-4.0627,-4.0622,-4.0579,-4.0717,-4.0739,-4.0736,-4.0811,-4.0759,-4.08,-4.0785,-4.0727,-4.073,-4.0849,-4.0849,-4.0769,-4.0983,-4.088,-4.0898,-4.0978,-4.1009,-4.1034,-4.1031,-4.0647,0,0,0,0,0,-4.0674,-4.0742,-4.0732,-4.0854,-4.0868,-4.0839,-4.0872,-4.0836,-4.0856,-4.0864,-4.0859,-4.0879,-4.0934,-4.0972,-4.1021,-4.1167,-4.1167,-4.1238,-4.1263,-4.1283,-4.13,-4.1377,-4.1408,-4.1073,-4.1073,-4.1072,0,0,-4.077,-4.0776,-4.0822,-4.0882,-4.0895,-4.0965,-4.0847,-4.0925,-4.0976,-4.0875,-4.0978,-4.0975,-4.0994,-4.1122,-4.1178,-4.1126,-4.1392,-4.1301,-4.1318,-4.1323,-4.1394,-4.1426,-4.1454,-4.1082,-4.1081,-4.1079,0,0,-4.0981,-4.0993,-4.1096,-4.1112,-4.1134,-4.1113,-4.1138,-4.1143,-4.1138,-4.1241,-4.1167,-4.1225,-4.1321,-4.1337,-4.1358,-4.1576,-4.1516,-4.1594,-4.1724,-4.1799,-4.1826,-4.1849,-4.1926,-4.1955,-4.161,-4.1611,-4.1611,0,-4.1098,-4.1202,-4.1155,-4.124,-4.1268,-4.1182,-4.1284,-4.1301,-4.1337,-4.1358,-4.13,-4.1419,-4.1425,-4.1556,-4.1609,-4.1629,-4.1655,-4.1593,-4.1826,-4.1849,-4.187,-4.1943,-4.1972,-4.162,-4.1619,-4.1618,-4.1617,0,-4.1344,-4.1417,-4.1497,-4.1537,-4.1574,-4.1668,-4.1633,-4.1676,-4.1637,-4.1622,-4.1727,-4.1732,-4.1781,-4.181,-4.1772,-4.1935,-4.1902,-4.1836,-4.1731,-4.1912,-4.198,-4.2007,-4.1633,-4.163,-4.1627,-4.1625,0,0,-4.1642,-4.1656,-4.1686,-4.1703,-4.172,-4.1775,-4.1864,-4.1914,-4.1951,-4.1979,-4.2051,-4.2135,-4.2074,-4.2098,-4.2061,-4.2128,-4.23,-4.2053,-4.2052,-4.2099,-4.248,-4.2529,-4.2563,-4.226,-4.2265,-4.2269,-4.2478,0,-4.185,-4.2004,-4.1965,-4.2117,-4.2184,-4.2103,-4.218,-4.2199,-4.2187,-4.224,-4.2226,-4.2287,-4.2202,-4.2216,-4.2278,-4.2266,-4.2376,-4.225,-4.2326,-4.2329,-4.2324,-4.2598,-4.2651,-4.2847,-4.2504,-4.2509,-4.2512,0,-4.2113,-4.2153,-4.2314,-4.2321,-4.2347,-4.2418,-4.246,-4.2513,-4.2531,-4.2518,-4.2546,-4.2496,-4.2581,-4.2477,-4.2593,-4.2509,-4.2537,-4.2536,-4.2543,-4.2547,-4.2431,-4.261,-4.2909,-4.2939,-4.2553,-4.255,-4.2547,0,-4.2314,-4.2408,-4.2516,-4.2533,-4.2544,-4.2596,-4.2602,-4.2615,-4.2648,-4.2685,-4.2705,-4.275,-4.2775,-4.2811,-4.2774,-4.2701,-4.2897,-4.2789,-4.2887,-4.2888,-4.2931,-4.2929,-4.3239,-4.2951,-4.295,-4.295,-4.2949,0,-4.2549,-4.2651,-4.2607,-4.2673,-4.2784,-4.2736,-4.2846,-4.2843,-4.2856,-4.2919,-4.2851,-4.2911,-4.2859,-4.2915,-4.2886,-4.2987,-4.2999,-4.299,-4.2981,-4.2996,-4.2997,-4.3013,-4.2998,-4.2958,-4.2956,-4.2954,-4.2953,0,-4.2792,-4.2767,-4.288,-4.2882,-4.2885,-4.2966,-4.2967,-4.3027,-4.3012,-4.3092,-4.3108,-4.3083,-4.3145,-4.3112,-4.3175,-4.3155,-4.3286,-4.3259,-4.3281,-4.3274,-4.3374,-4.3365,-4.3704,-4.3746,-4.3432,-4.3435,-4.3438,0,-4.2944,-4.302,-4.3032,-4.307,-4.3083,-4.3145,-4.3179,-4.3135,-4.3172,-4.32,-4.3257,-4.3313,-4.3356,-4.3458,-4.3444,-4.3492,-4.3465,-4.3581,-4.3471,-4.3484,-4.3466,-4.3462,-4.3469,-4.3602,-4.3606,-4.3609,-4.3611,0,-4.3216,-4.32,-4.3252,-4.3301,-4.3344,-4.3379,-4.3408,-4.3443,-4.34,-4.3445,-4.3508,-4.3542,-4.3607,-4.3664,-4.3705,-4.3709,-4.3654,-4.3646,-4.3671,-4.3687,-4.3696,-4.3692,-4.334,-4.3638,-4.3636,-4.3634,-4.3632,-4.3631,-4.3417,-4.3481,-4.35,-4.356,-4.3578,-4.3608,-4.3665,-4.3657,-4.371,-4.3761,-4.3732,-4.3806,-4.3822,-4.3872,-4.3885,-4.3941,-4.3894,-4.3931,-4.394,-4.395,-4.3964,-4.3689,-4.3948,-4.3948,-4.3947,-4.3946,-4.3946,0,-4.3685,-4.3693,-4.375,-4.3794,-4.3842,-4.3787,-4.3817,-4.3859,-4.3926,-4.3947,-4.3992,-4.4064,-4.4119,-4.411,-4.416,-4.4207,-4.4182,-4.4221,-4.4217,-4.4219,-4.4002,-4.3976,-4.424,-4.424,-4.424,-4.424,-4.424,-4.424,-4.383,-4.3936,-4.3922,-4.4036,-4.4042,-4.4117,-4.4138,-4.4165,-4.4181,-4.4266,-4.4312,-4.4307,-4.4316,-4.4365,-4.4413,-4.4409,-4.443,-4.4478,-4.4465,-4.4263,-4.4234,-4.4206,-4.418,-4.4484,-4.4484,-4.4676,-4.4678,-4.4679]},{"header":{"parameterUnit":"m.s-1","parameterCategory":1,"la1":30.2991,"la2":30.254,"lo1":-89.0895,"lo2":-89.0444,"dy":0.0017,"dx":0.0017,"nx":28,"ny":28,"refTime":"2023-04-27T21:00:00:Z","depth":0,"parameterNumber":3,"parameterNumberName":"V-component_of_WINDS"},"data":[0,0,0,0,0,0,0,0,0,0,0,0,0,0,0,0,0,0,0,0,0,0,0,0,0,0,0,0,0,0,0,0,0,0,0,0,0,0,0,0,0,0,0,0,0,0,0,0,0,0,0,0,0,0,0,0,0,0,0.2898,0.29,0,0.3058,0.306,0.3061,0.3073,0.3072,0.307,0.3068,0.3245,0.3251,0.3257,0,0,0,0,0,0,0,0,0,0,0,0,0,0.2615,0.262,0.2898,0.29,0.2902,0.3057,0.306,0.3062,0.3074,0.3072,0.3069,0.3067,0.3243,0.325,0.3258,0,0,0,0,0,0,0,0,0,0,0,0,0,0.2753,0.2622,0.2898,0.2926,0.293,0.3057,0.306,0.3062,0.3074,0.3071,0.3069,0.3066,0.324,0.3249,0.3259,0.3372,0,0,0.3288,0.3292,0,0,0,0,0,0,0,0,0.2745,0.2764,0.292,0.2925,0.2929,0.3043,0.3025,0.3167,0.3075,0.302,0.3068,0.3065,0.3181,0.3195,0.3231,0.338,0.3387,0.3289,0.3295,0.3299,0.3301,0,0,0,0,0,0,0,0.2736,0.2757,0.2962,0.2922,0.2928,0.2935,0.2952,0.3052,0.3114,0.3025,0.3026,0.3044,0.3183,0.3222,0.3235,0.339,0.3289,0.3297,0.3303,0.3307,0.364,0.3643,0,0,0,0,0,0,0.2719,0.2749,0.2957,0.2966,0.2828,0.2942,0.2961,0.3009,0.3113,0.3126,0.3046,0.3044,0.3207,0.3224,0.3242,0.338,0.3299,0.3308,0.3313,0.3637,0.3641,0.3644,0,0,0,0,0,0,0.2713,0.2737,0.295,0.2858,0.2885,0.295,0.3004,0.3014,0.3053,0.3129,0.3141,0.3074,0.3205,0.3228,0.3338,0.3387,0.3312,0.3321,0.3633,0.3638,0.3642,0.3658,0,0,0,0,0,0,0.2705,0.2735,0.2776,0.2858,0.289,0.3041,0.3007,0.3019,0.3068,0.3066,0.3158,0.3171,0.3205,0.3324,0.3348,0.3398,0.3328,0.3629,0.3635,0.3641,0.3654,0.3663,0.3671,0,0,0,0,0,0.2694,0.2777,0.2778,0.2803,0.2942,0.3043,0.3062,0.3096,0.3071,0.3115,0.3163,0.3168,0.3377,0.3335,0.3362,0.3416,0.3626,0.3634,0.364,0.365,0.3661,0.3671,0,0,0,0,0,0,0.2703,0.2788,0.279,0.2901,0.2964,0.3045,0.3101,0.3107,0.3182,0.3178,0.3221,0.3241,0.335,0.3395,0.3346,0.3531,0.35,0.3512,0.3498,0.3509,0.3517,0.3505,0.3336,0,0,0,0,0,0.2717,0.2788,0.286,0.2952,0.2983,0.3036,0.3082,0.3102,0.3171,0.3199,0.3256,0.3326,0.3408,0.3461,0.354,0.366,0.3681,0.3711,0.3719,0.3726,0.3737,0.3804,0.3818,0.3667,0.3667,0.3667,0,0,0.2748,0.2804,0.2847,0.2955,0.3006,0.3082,0.3059,0.3141,0.3199,0.3213,0.3319,0.3363,0.3445,0.356,0.3614,0.3601,0.3783,0.3735,0.374,0.3747,0.3813,0.3827,0.384,0.3672,0.3671,0.367,0,0,0.2844,0.2892,0.2972,0.3023,0.31,0.3134,0.3154,0.3233,0.3262,0.3368,0.338,0.3452,0.3591,0.3648,0.3696,0.3812,0.3819,0.3837,0.3882,0.3947,0.3959,0.3969,0.4011,0.4025,0.3847,0.3848,0.3848,0,0.2874,0.2985,0.3015,0.3095,0.3143,0.3154,0.3238,0.3288,0.3388,0.3423,0.3405,0.3579,0.3635,0.3764,0.3792,0.383,0.3855,0.3827,0.3953,0.3965,0.3975,0.4016,0.4031,0.3849,0.3849,0.3849,0.3849,0,0.3019,0.3096,0.3153,0.3243,0.3298,0.338,0.3425,0.3478,0.3493,0.3531,0.364,0.3707,0.3799,0.3832,0.385,0.3964,0.3952,0.3944,0.3913,0.3991,0.4029,0.4045,0.3851,0.3851,0.385,0.385,0,0,0.3126,0.3229,0.325,0.3291,0.3375,0.3438,0.3522,0.3607,0.3652,0.3721,0.3794,0.3911,0.3902,0.3956,0.3981,0.4038,0.4125,0.4022,0.4025,0.4039,0.4255,0.4261,0.4278,0.413,0.4133,0.4136,0.4248,0,0.323,0.3374,0.3403,0.3529,0.3602,0.3614,0.3687,0.3749,0.3786,0.3856,0.3899,0.3981,0.3964,0.3996,0.4053,0.4102,0.4169,0.4095,0.4201,0.4204,0.418,0.4298,0.4305,0.4408,0.4264,0.4266,0.4268,0,0.3372,0.3439,0.3571,0.3645,0.3677,0.3741,0.3822,0.3888,0.3959,0.3983,0.4041,0.4059,0.415,0.4114,0.4241,0.4189,0.4235,0.4266,0.4271,0.4283,0.4241,0.4314,0.4442,0.4457,0.4292,0.429,0.4289,0,0.3436,0.3561,0.3655,0.369,0.3779,0.3824,0.3864,0.3932,0.3981,0.4054,0.4087,0.4171,0.4217,0.4283,0.4324,0.4294,0.4448,0.4416,0.4472,0.4471,0.4505,0.4502,0.4642,0.4534,0.4533,0.4533,0.4533,0,0.3551,0.3632,0.3685,0.3743,0.3835,0.3868,0.3959,0.4,0.406,0.4129,0.4146,0.4211,0.4261,0.4335,0.4368,0.4468,0.449,0.4513,0.4521,0.4511,0.4508,0.4542,0.4536,0.4537,0.4536,0.4536,0.4535,0,0.3639,0.3677,0.3781,0.3855,0.3875,0.3939,0.4005,0.4064,0.41,0.4187,0.421,0.427,0.4356,0.4403,0.4514,0.4537,0.4649,0.4653,0.4623,0.4626,0.468,0.4674,0.4847,0.4872,0.4747,0.4748,0.4749,0,0.3709,0.377,0.3849,0.3894,0.3933,0.4007,0.4056,0.4092,0.4144,0.4228,0.4278,0.4365,0.4436,0.4575,0.463,0.4715,0.4722,0.4776,0.4735,0.4723,0.4723,0.4718,0.4725,0.4784,0.4785,0.4786,0.4787,0,0.383,0.3845,0.3913,0.3988,0.4045,0.4108,0.4169,0.4206,0.4254,0.4311,0.4397,0.4452,0.4562,0.4649,0.4738,0.4783,0.4794,0.4799,0.4817,0.4808,0.4787,0.4799,0.4643,0.4795,0.4795,0.4794,0.4793,0.4793,0.3911,0.3966,0.4029,0.4105,0.4154,0.421,0.4269,0.4311,0.4382,0.4471,0.449,0.4581,0.4652,0.4771,0.4819,0.4893,0.4883,0.4908,0.4915,0.4921,0.4922,0.4775,0.491,0.491,0.491,0.4909,0.4909,0,0.4033,0.4073,0.4142,0.4225,0.4285,0.4285,0.4353,0.4404,0.4483,0.4546,0.4614,0.4714,0.4797,0.4858,0.4944,0.4992,0.5,0.5014,0.5011,0.5021,0.4927,0.4903,0.5007,0.5007,0.5007,0.5006,0.5006,0.5006,0.4103,0.4195,0.4218,0.4336,0.4377,0.4463,0.4502,0.4555,0.4605,0.4713,0.4781,0.4818,0.4882,0.4972,0.505,0.5066,0.5097,0.5111,0.5128,0.5039,0.5028,0.5018,0.4996,0.5117,0.5118,0.5216,0.5217,0.5217]}]]